Tracking 26922 objects as of 30-Jan-2023
HD Live streaming from Space Station
objects crossing your sky now

ONEWEB-0507

Track ONEWEB-0507 now!
10-day predictions
ONEWEB-0507 is classified as:


NORAD ID: 54125
Int'l Code: 2022-138N
Perigee: 1,181.8 km
Apogee: 1,183.8 km
Inclination: 87.9 °
Period: 108.9 minutes
Semi major axis: 7553 km
RCS: Unknown
Launch date: October 22, 2022
Source: United Kingdom (UK)
Launch site: SRIHARIKOTA (SRI)
Your satellite tracking list
Your tracking list is empty




NASA's NSSDC Master Catalog

Two Line Element Set (TLE):
1 54125U 22138N   23030.41667824  .00000013  00000-0  00000+0 0  9992
2 54125  87.9417 190.2615 0001332  75.0675 225.4465 13.22374562 14983
Source of the keplerian elements: AFSPC